Time,TemperatureF,DewpointF,PressureIn,WindDirection,WindDirectionDegrees,WindSpeedMPH,WindSpeedGustMPH,Humidity,HourlyPrecipIn,Conditions,Clouds,dailyrainin,SoftwareType,DateUTC
2013-06-08 00:10:00,68.5,60.0,30.68,ENE,76,0.0,-999.0,74,-99.99,,,0.00,weatherlink.com 1.10,2013-06-08 05:10:00,
2013-06-08 00:25:00,67.9,60.0,30.67,ENE,76,0.0,-999.0,75,-99.99,,,0.00,weatherlink.com 1.10,2013-06-08 05:25:00,
2013-06-08 00:40:00,68.4,59.0,30.67,ENE,76,0.0,-999.0,73,-99.99,,,0.00,weatherlink.com 1.10,2013-06-08 05:40:00,
2013-06-08 00:55:00,68.9,60.0,30.68,ENE,76,0.0,-999.0,73,-99.99,,,0.00,weatherlink.com 1.10,2013-06-08 05:55:00,
2013-06-08 01:10:00,68.6,60.0,30.67,ENE,76,0.0,-999.0,74,-99.99,,,0.00,weatherlink.com 1.10,2013-06-08 06:10:00,
2013-06-08 01:25:00,69.3,60.0,30.67,ENE,76,0.0,-999.0,71,-99.99,,,0.00,weatherlink.com 1.10,2013-06-08 06:25:00,
2013-06-08 01:40:00,70.2,60.0,30.67,ENE,76,0.0,-999.0,70,-99.99,,,0.00,weatherlink.com 1.10,2013-06-08 06:40:00,
2013-06-08 01:55:00,70.4,60.0,30.67,ENE,76,0.0,-999.0,69,-99.99,,,0.00,weatherlink.com 1.10,2013-06-08 06:55:00,
2013-06-08 02:10:00,70.6,60.0,30.66,ENE,76,1.0,-999.0,69,-99.99,,,0.00,weatherlink.com 1.10,2013-06-08 07:10:00,
2013-06-08 02:25:00,70.3,60.0,30.67,ENE,77,0.0,-999.0,69,-99.99,,,0.00,weatherlink.com 1.10,2013-06-08 07:25:00,
2013-06-08 02:40:00,70.0,60.0,30.66,ENE,76,0.0,-999.0,70,-99.99,,,0.00,weatherlink.com 1.10,2013-06-08 07:40:00,
2013-06-08 02:55:00,69.6,60.0,30.66,ENE,78,0.0,-999.0,71,-99.99,,,0.00,weatherlink.com 1.10,2013-06-08 07:55:00,
2013-06-08 03:10:00,69.6,59.0,30.66,ENE,78,0.0,-999.0,70,-99.99,,,0.00,weatherlink.com 1.10,2013-06-08 08:10:00,
2013-06-08 03:26:00,69.6,59.0,30.67,ENE,78,0.0,-999.0,70,-99.99,,,0.00,weatherlink.com 1.10,2013-06-08 08:26:00,
2013-06-08 03:41:00,69.4,60.0,30.67,ENE,78,0.0,-999.0,71,-99.99,,,0.00,weatherlink.com 1.10,2013-06-08 08:41:00,
2013-06-08 03:56:00,69.3,60.0,30.68,ENE,78,0.0,-999.0,71,-99.99,,,0.00,weatherlink.com 1.10,2013-06-08 08:56:00,
2013-06-08 04:11:00,67.7,59.0,30.67,ENE,78,0.0,-999.0,74,-99.99,,,0.00,weatherlink.com 1.10,2013-06-08 09:11:00,
2013-06-08 04:26:00,66.2,59.0,30.67,ENE,78,0.0,-999.0,77,-99.99,,,0.00,weatherlink.com 1.10,2013-06-08 09:26:00,
2013-06-08 04:41:00,65.3,59.0,30.66,ENE,78,0.0,-999.0,79,-99.99,,,0.00,weatherlink.com 1.10,2013-06-08 09:41:00,
2013-06-08 04:56:00,64.5,59.0,30.67,ENE,78,0.0,-999.0,81,-99.99,,,0.00,weatherlink.com 1.10,2013-06-08 09:56:00,
2013-06-08 05:11:00,63.9,59.0,30.66,ENE,78,0.0,-999.0,83,-99.99,,,0.00,weatherlink.com 1.10,2013-06-08 10:11:00,
2013-06-08 05:26:00,64.0,59.0,30.67,ENE,78,0.0,-999.0,84,-99.99,,,0.00,weatherlink.com 1.10,2013-06-08 10:26:00,
2013-06-08 05:41:00,63.4,59.0,30.67,ENE,78,0.0,-999.0,84,-99.99,,,0.00,weatherlink.com 1.10,2013-06-08 10:41:00,
2013-06-08 05:56:00,62.8,58.0,30.68,ENE,78,0.0,-999.0,85,-99.99,,,0.00,weatherlink.com 1.10,2013-06-08 10:56:00,
2013-06-08 06:11:00,62.4,58.0,30.67,ENE,78,0.0,-999.0,86,-99.99,,,0.00,weatherlink.com 1.10,2013-06-08 11:11:00,
2013-06-08 06:26:00,62.1,58.0,30.68,ENE,78,0.0,-999.0,87,-99.99,,,0.00,weatherlink.com 1.10,2013-06-08 11:26:00,
2013-06-08 06:56:00,61.8,59.0,30.70,ENE,78,0.0,-999.0,89,-99.99,,,0.00,weatherlink.com 1.10,2013-06-08 11:56:00,
2013-06-08 07:11:00,63.0,60.0,30.69,ENE,78,0.0,-999.0,90,-99.99,,,0.00,weatherlink.com 1.10,2013-06-08 12:11:00,
2013-06-08 07:26:00,64.9,62.0,30.68,ENE,78,0.0,-999.0,91,-99.99,,,0.00,weatherlink.com 1.10,2013-06-08 12:26:00,
2013-06-08 07:41:00,67.2,64.0,30.68,ENE,78,0.0,-999.0,89,-99.99,,,0.00,weatherlink.com 1.10,2013-06-08 12:41:00,
2013-06-08 08:11:00,73.1,66.0,30.69,ENE,78,0.0,-999.0,78,-99.99,,,0.00,weatherlink.com 1.10,2013-06-08 13:11:00,
2013-06-08 08:41:00,76.2,65.0,30.70,ENE,73,3.0,-999.0,69,-99.99,,,0.00,weatherlink.com 1.10,2013-06-08 13:41:00,
2013-06-08 08:56:00,77.0,65.0,30.70,East,85,2.0,-999.0,67,-99.99,,,0.00,weatherlink.com 1.10,2013-06-08 13:56:00,
2013-06-08 09:11:00,78.2,65.0,30.71,East,86,2.0,-999.0,65,-99.99,,,0.00,weatherlink.com 1.10,2013-06-08 14:11:00,
2013-06-08 09:26:00,78.8,66.0,30.71,ENE,59,1.0,-999.0,65,-99.99,,,0.00,weatherlink.com 1.10,2013-06-08 14:26:00,
2013-06-08 09:41:00,79.8,66.0,30.70,SE,131,2.0,-999.0,62,-99.99,,,0.00,weatherlink.com 1.10,2013-06-08 14:41:00,
2013-06-08 09:56:00,80.4,66.0,30.70,South,175,4.0,-999.0,61,-99.99,,,0.00,weatherlink.com 1.10,2013-06-08 14:56:00,
2013-06-08 10:11:00,80.9,65.0,30.70,South,188,5.0,-999.0,58,-99.99,,,0.00,weatherlink.com 1.10,2013-06-08 15:11:00,
2013-06-08 10:26:00,81.7,66.0,30.70,South,176,4.0,-999.0,59,-99.99,,,0.00,weatherlink.com 1.10,2013-06-08 15:26:00,
2013-06-08 10:41:00,82.4,65.0,30.70,South,188,1.0,-999.0,55,-99.99,,,0.00,weatherlink.com 1.10,2013-06-08 15:41:00,
2013-06-08 10:56:00,82.5,64.0,30.70,South,183,3.0,-999.0,54,-99.99,,,0.00,weatherlink.com 1.10,2013-06-08 15:56:00,
2013-06-08 11:11:00,83.2,66.0,30.70,SSE,165,3.0,-999.0,56,-99.99,,,0.00,weatherlink.com 1.10,2013-06-08 16:11:00,
2013-06-08 11:26:00,83.4,67.0,30.70,SSW,201,6.0,-999.0,58,-99.99,,,0.00,weatherlink.com 1.10,2013-06-08 16:26:00,
2013-06-08 11:41:00,84.0,68.0,30.70,South,172,4.0,-999.0,58,-99.99,,,0.00,weatherlink.com 1.10,2013-06-08 16:41:00,
2013-06-08 11:56:00,84.4,68.0,30.68,ENE,59,0.0,-999.0,58,-99.99,,,0.00,weatherlink.com 1.10,2013-06-08 16:56:00,
2013-06-08 12:11:00,84.8,69.0,30.68,SSE,150,4.0,-999.0,60,-99.99,,,0.00,weatherlink.com 1.10,2013-06-08 17:11:00,
2013-06-08 12:26:00,85.3,71.0,30.68,ESE,104,4.0,-999.0,63,-99.99,,,0.00,weatherlink.com 1.10,2013-06-08 17:26:00,
2013-06-08 12:42:00,85.9,71.0,30.67,South,177,3.0,-999.0,61,-99.99,,,0.00,weatherlink.com 1.10,2013-06-08 17:42:00,
2013-06-08 12:57:00,86.5,70.0,30.66,South,184,4.0,-999.0,59,-99.99,,,0.00,weatherlink.com 1.10,2013-06-08 17:57:00,
2013-06-08 13:12:00,87.0,71.0,30.66,South,180,7.0,-999.0,60,-99.99,,,0.00,weatherlink.com 1.10,2013-06-08 18:12:00,
2013-06-08 13:27:00,86.4,72.0,30.65,SSE,160,4.0,-999.0,63,-99.99,,,0.00,weatherlink.com 1.10,2013-06-08 18:27:00,
2013-06-08 13:42:00,87.5,70.0,30.65,South,175,3.0,-999.0,57,-99.99,,,0.00,weatherlink.com 1.10,2013-06-08 18:42:00,
2013-06-08 13:57:00,86.9,70.0,30.63,South,175,5.0,-999.0,58,-99.99,,,0.00,weatherlink.com 1.10,2013-06-08 18:57:00,
2013-06-08 14:12:00,88.2,71.0,30.62,SSW,196,4.0,-999.0,56,-99.99,,,0.00,weatherlink.com 1.10,2013-06-08 19:12:00,
2013-06-08 14:27:00,87.8,69.0,30.62,South,172,2.0,-999.0,54,-99.99,,,0.00,weatherlink.com 1.10,2013-06-08 19:27:00,
2013-06-08 14:42:00,88.8,71.0,30.61,East,87,0.0,-999.0,55,-99.99,,,0.00,weatherlink.com 1.10,2013-06-08 19:42:00,
2013-06-08 14:57:00,89.6,71.0,30.61,ENE,71,3.0,-999.0,54,-99.99,,,0.00,weatherlink.com 1.10,2013-06-08 19:57:00,
2013-06-08 15:12:00,89.4,69.0,30.60,South,186,0.0,-999.0,52,-99.99,,,0.00,weatherlink.com 1.10,2013-06-08 20:12:00,
2013-06-08 15:27:00,89.8,68.0,30.60,ENE,64,4.0,-999.0,49,-99.99,,,0.00,weatherlink.com 1.10,2013-06-08 20:27:00,
2013-06-08 15:42:00,89.6,69.0,30.59,East,82,2.0,-999.0,51,-99.99,,,0.00,weatherlink.com 1.10,2013-06-08 20:42:00,
2013-06-08 15:57:00,90.1,71.0,30.59,South,180,4.0,-999.0,53,-99.99,,,0.00,weatherlink.com 1.10,2013-06-08 20:57:00,
2013-06-08 16:12:00,89.6,70.0,30.59,South,180,0.0,-999.0,52,-99.99,,,0.00,weatherlink.com 1.10,2013-06-08 21:12:00,
2013-06-08 16:27:00,90.2,71.0,30.59,SSW,199,2.0,-999.0,54,-99.99,,,0.00,weatherlink.com 1.10,2013-06-08 21:27:00,
2013-06-08 16:42:00,90.1,70.0,30.59,SSE,167,3.0,-999.0,52,-99.99,,,0.00,weatherlink.com 1.10,2013-06-08 21:42:00,
2013-06-08 16:57:00,88.5,70.0,30.60,SSW,201,7.0,-999.0,55,-99.99,,,0.00,weatherlink.com 1.10,2013-06-08 21:57:00,
2013-06-08 17:12:00,90.1,71.0,30.58,ESE,123,4.0,-999.0,54,-99.99,,,0.00,weatherlink.com 1.10,2013-06-08 22:12:00,
2013-06-08 17:27:00,90.4,71.0,30.57,NE,54,3.0,-999.0,53,-99.99,,,0.00,weatherlink.com 1.10,2013-06-08 22:27:00,
2013-06-08 17:42:00,89.3,72.0,30.57,SSE,159,9.0,-999.0,57,-99.99,,,0.00,weatherlink.com 1.10,2013-06-08 22:42:00,
2013-06-08 17:57:00,83.7,70.0,30.58,SSE,151,4.0,-999.0,64,-99.99,,,0.00,weatherlink.com 1.10,2013-06-08 22:57:00,
2013-06-08 18:12:00,82.5,70.0,30.59,SSE,162,11.0,-999.0,66,-99.99,,,0.00,weatherlink.com 1.10,2013-06-08 23:12:00,
2013-06-08 18:27:00,82.2,71.0,30.58,SSE,162,4.0,-999.0,68,-99.99,,,0.00,weatherlink.com 1.10,2013-06-08 23:27:00,
2013-06-08 18:42:00,81.1,68.0,30.57,ESE,123,4.0,-999.0,65,-99.99,,,0.00,weatherlink.com 1.10,2013-06-08 23:42:00,
2013-06-08 18:57:00,80.6,68.0,30.57,ESE,122,3.0,-999.0,66,-99.99,,,0.00,weatherlink.com 1.10,2013-06-08 23:57:00,
2013-06-08 19:12:00,80.5,69.0,30.57,SE,130,2.0,-999.0,67,-99.99,,,0.00,weatherlink.com 1.10,2013-06-09 00:12:00,
2013-06-08 19:27:00,80.1,69.0,30.59,South,178,5.0,-999.0,69,-99.99,,,0.00,weatherlink.com 1.10,2013-06-09 00:27:00,
2013-06-08 19:42:00,79.4,69.0,30.59,SE,138,3.0,-999.0,70,-99.99,,,0.00,weatherlink.com 1.10,2013-06-09 00:42:00,
2013-06-08 19:57:00,79.1,69.0,30.59,SE,135,2.0,-999.0,70,-99.99,,,0.00,weatherlink.com 1.10,2013-06-09 00:57:00,
2013-06-08 20:12:00,78.7,69.0,30.61,SSE,160,2.0,-999.0,72,-99.99,,,0.00,weatherlink.com 1.10,2013-06-09 01:12:00,
2013-06-08 20:27:00,78.2,70.0,30.60,SSE,162,1.0,-999.0,75,-99.99,,,0.00,weatherlink.com 1.10,2013-06-09 01:27:00,
2013-06-08 20:42:00,77.8,70.0,30.59,SSE,161,1.0,-999.0,76,-99.99,,,0.00,weatherlink.com 1.10,2013-06-09 01:42:00,
2013-06-08 20:57:00,77.5,70.0,30.59,ENE,60,2.0,-999.0,78,-99.99,,,0.00,weatherlink.com 1.10,2013-06-09 01:57:00,
2013-06-08 21:12:00,77.4,71.0,30.59,SE,140,2.0,-999.0,80,-99.99,,,0.00,weatherlink.com 1.10,2013-06-09 02:12:00,
2013-06-08 21:27:00,77.3,71.0,30.59,ESE,117,1.0,-999.0,81,-99.99,,,0.00,weatherlink.com 1.10,2013-06-09 02:27:00,
2013-06-08 21:42:00,77.3,71.0,30.60,ESE,123,2.0,-999.0,82,-99.99,,,0.00,weatherlink.com 1.10,2013-06-09 02:42:00,
2013-06-08 21:57:00,77.3,71.0,30.61,SE,137,3.0,-999.0,82,-99.99,,,0.00,weatherlink.com 1.10,2013-06-09 02:57:00,
2013-06-08 22:12:00,77.1,72.0,30.62,SSE,154,2.0,-999.0,83,-99.99,,,0.00,weatherlink.com 1.10,2013-06-09 03:12:00,
2013-06-08 22:27:00,76.8,72.0,30.62,SSE,166,2.0,-999.0,84,-99.99,,,0.00,weatherlink.com 1.10,2013-06-09 03:27:00,
2013-06-08 22:42:00,76.8,72.0,30.62,SSE,150,3.0,-999.0,84,-99.99,,,0.00,weatherlink.com 1.10,2013-06-09 03:42:00,
2013-06-08 22:57:00,76.6,72.0,30.63,SSE,156,3.0,-999.0,84,-99.99,,,0.00,weatherlink.com 1.10,2013-06-09 03:57:00,
2013-06-08 23:12:00,76.3,71.0,30.63,SSE,163,3.0,-999.0,84,-99.99,,,0.00,weatherlink.com 1.10,2013-06-09 04:12:00,
2013-06-08 23:27:00,76.2,71.0,30.63,SSE,157,1.0,-999.0,84,-99.99,,,0.00,weatherlink.com 1.10,2013-06-09 04:27:00,
2013-06-08 23:42:00,76.0,71.0,30.64,SSE,151,1.0,-999.0,83,-99.99,,,0.00,weatherlink.com 1.10,2013-06-09 04:42:00,
2013-06-08 23:57:00,75.7,71.0,30.64,SSE,150,2.0,-999.0,84,-99.99,,,0.00,weatherlink.com 1.10,2013-06-09 04:57:00,